THORAD AGENA D DEB, 4988

Orbit data source: Space-Track

THORAD AGENA D DEB, 4988 is space debris in SSO originally from a launch on Wed, 08 Apr 1970 UTC launched from the Air Force Western Test Range (AFWTR). Debris objects in space refer to the collection of defunct objects orbiting the Earth. Examples of debris include non-operational satellites, rocket bodies, and fragments generated from explosions, collisions, or faulty payload assembly.

Loading next visibility...
Identifier
4988, 1970-025HJ
Orbit
SSO
Country
Flag of USUS
Related business
Manufacturer
Unknown
Mission
Spacecraft
Bus & Motor
Unknown
Mass
Unknown
Launch date (UTC)
1970-04-08 (56 years ago)
Launch vehicle
Unknown
Launch site
Air Force Western Test Range (AFWTR)
Object type
Payload
Rocket body
Debris
Shape & HBR
Unknown shape, 0.1 m
Radar Cross Section
Medium (>0.1 m² and <1 m²)

Expand to show TLE details & history
Last TLE update: 8 hours ago

TLE from 8 hours ago
0 THORAD AGENA D DEB
1 04988U 70025HJ  26208.44681262  .00000373  00000-0  50160-3 0  9992
2 04988 100.0277 204.3595 0015142 175.6324 340.4858 13.67165091789327
Epoch: 2026-07-27T10:43Z
TLE epoch observation values (Epoch: 2026-07-27T10:43:24.610Z)
Latitude
23.57443°
Longitude
-77.221°
Altitude
1,001.97 km
Speed
7.358 km/s
True Right ascension
01h 55m 02s
True Declination
23° 27' 10"
Sunlit
Object was in daylight at epoch
Visualization orbit readout
Latitude
Unknown
Longitude
Unknown
Altitude
Unknown
Speed
Unknown
Apparent Right ascension
Unknown
Apparent Declination
Unknown
Sunlit
N/A
Visualization observer readout
Local Sidereal Time
08:33:28
Azimuth
Unknown
Elevation
Unknown
Doppler factor
Unknown
Orbital elements
Apogee altitude
1,018.245 km
Perigee altitude
995.879 km
Semi-major axis
7,385.199 km
Eccentricity
0.00151
Inclination
100.0277°
RAAN
204.3595°
Arg. of periapsis
175.6324°
True anomaly
340.42774°
Mean anomaly
340.4858°
Eccentric anomaly
340.45678°
Mean motion
3.41979 °/min
Orbital period
105.27 mins
BSTAR
0.0005016
Loading maneuver chart data...
Computing Atmospheric mass density...

Documentation

Showing up to 5 results
|